User: anonymous   Login
Location: Strawberry
(45.6646°N, 111.9596°W)
Time: 08:50:51
(UTC+00:00)
Language:

BEESAT - Orbit

View from above orbital plane
View from above orbital plane
View from above satellite
View from above satellite

Ground track
Ground track

The orbit data is extracted from the following two-line orbital elements,

1 35933U 09051C   24114.15636675  .00003111  00000-0  67859-3 0  9993
2 35933  98.4716 357.3383 0006511 131.6061 228.5696 14.58593505774688
Epoch (UTC): 23 April 2024 03:45:10
Eccentricity: 0.0006511
inclination: 98.4716°
perigee height: 693 km
apogee height: 702 km
right ascension of ascending node: 357.3383°
argument of perigee: 131.6061°
revolutions per day: 14.58593505
mean anomaly at epoch: 228.5696°
orbit number at epoch: 77468

The dashed part of the orbit path shows where the satellite is in the earth's shadow,  

DLR